Location: ????????
(55.0559°N, 39.1270°E)
Time: 00:24:35
(UTC+00:00)

Cosmos 2333 Rocket - Pass Details

Date: 15 November 2025
Orbit: 837 x 865 km, 70.8° (Epoch: 12 December)

Event Time Altitude Azimuth Distance (km) Brightness Sun altitude
Exits shadow 02:17:28 20° 333° (NNW) 1,875 3.7 -22.3°
Maximum altitude 02:17:57 21° 340° (NNW) 1,866 3.8 -22.2°
Drops below altitude 10° 02:22:14 10° 28° (NNE) 2,517 5.0 -21.6°
Sets 02:25:23 0° 45° (NE) 3,458 6.0 -21.2°
